This demonstration page uses our WeatherBlox Daily Observations layout. Learn more.

Left ArrowRight Arrow

41.55636, -103.73856

Hourly Observations for April 18, 2021

Temp ( °F °C ) Dew Point ( °F °C ) Humidity (%) Winds ( mph kmh ) Pressure ( in mb ) Visibility ( mi km ) Precip ( " mm )
12:58 am 00:58 Clear 30 -1.3 22 -5.3 75 75 W 14 22 30.24 1024 10 16.0934 0 0
1:58 am 01:58 Clear 29 -1.5 23 -5.2 76 76 W 13 20 30.22 1023 10 16.0934 0 0
2:58 am 02:58 Clear 29 -1.6 23 -5 78 78 W 14 22 30.21 1023 10 16.0934 0 0
3:58 am 03:58 Clear 28 -2 23 -4.9 81 81 W 14 22 30.21 1023 10 16.0934 0 0
4:58 am 04:58 Clear 29 -1.7 23 -5.1 78 78 W 14 22 30.2 1023 10 16.0934 0 0
5:58 am 05:58 Clear 29 -1.7 23 -5.1 78 78 W 14 22 30.2 1023 10 16.0934 0 0
6:58 am 06:58 Sunny 31 -0.3 23 -4.9 71 71 W 14 22 30.18 1022 10 16.0934 0 0
7:58 am 07:58 Sunny 35 1.8 25 -4 66 66 W 14 22 30.19 1022 10 16.0934 0 0
8:58 am 08:58 Sunny 40 4.4 27 -2.6 61 61 WNW 14 22 30.16 1022 10 16.0934 0 0
9:58 am 09:58 Sunny 44 6.9 26 -3.5 48 48 NNW 16 26 30.15 1021 10 16.0934 0 0
10:58 am 10:58 Sunny 48 8.7 26 -3.3 43 43 NNW 17 28 30.14 1021 10 16.0934 0 0
11:58 am 11:58 Sunny 51 10.4 27 -3 39 39 NNW 20 31 30.12 1020 10 16.0934 0 0
12:58 pm 12:58 Partly Cloudy 53 11.7 25 -4 33 33 N 20 31 30.09 1019 10 16.0934 0 0
1:58 pm 13:58 Mostly Cloudy 55 12.6 25 -3.9 32 32 NNW 12 19 30.07 1018 10 16.0934 0 0
2:58 pm 14:58 Partly Cloudy 55 12.6 26 -3.1 34 34 NNW 15 24 30.06 1018 10 16.0934 0 0
3:58 pm 15:58 Partly Cloudy 55 12.9 26 -3.6 32 32 NNW 20 31 30.03 1017 10 16.0934 0 0
4:58 pm 16:58 Partly Cloudy 55 12.6 26 -3.4 33 33 WNW 13 20 30.03 1017 10 16.0934 0 0
5:58 pm 17:58 Mostly Cloudy 51 10.6 30 -1 45 45 WNW 3 6 30.04 1017 10 16.0934 0 0
6:58 pm 18:58 Sunny 52 11.2 29 -1.8 41 41 NW 6 9 30.03 1017 10 16.0934 0 0
7:58 pm 19:58 Clear 44 6.9 27 -3 50 50 W 6 9 30.04 1017 10 16.0934 0 0
8:58 pm 20:58 Mostly Clear 43 6.1 25 -3.8 49 49 W 9 15 30.03 1017 10 16.0934 0 0
9:58 pm 21:58 Clear 40 4.4 25 -4 55 55 WSW 9 15 30.02 1017 10 16.0934 0 0
10:58 pm 22:58 Clear 41 4.9 25 -3.8 54 54 W 12 19 29.98 1015 10 16.0934 0 0
11:58 pm 23:58 Clear 40 4.3 28 -2.3 63 63 ENE 5 7 29.96 1015 10 16.0934 0 0

Powered by AerisWeather